sat.trackr.live / text

‹ back to catalog

STARLINK-34058

NORAD 63818 · 2025-092Q

PAYLOAD ACTIVE UNKNOWN

§ Identity

Operator
Country
US
Launch date
2025-05-04
Launch site
AFETR
Launch vehicle
Mass (kg)
RCS (m²)

Purposes: comms

External: N2YO · Heavens-Above · Gunter

§ Orbital elements

Epoch: 2026-09-20T23:11:51.164160Z

Period
94.27 min
Inclination
42.9991°
Eccentricity
0.0001191
Mean motion
15.27588928 rev/d
Perigee alt
482.2 km
Apogee alt
483.8 km
Semi-major
6,861.2 km
B*
4.3223e-4
RAAN
149.3827°
Arg perigee
267.8658°
Mean anomaly
92.2058°
Rev number
7,853

§ Raw data

STARLINK-340581 63818U 25092Q   26263.96656440  .00011654  00000+0  43223-3 0  99962 63818  42.9991 149.3827 0001191 267.8658  92.2058 15.27588928 78534

JSON: /api/v1/satellites/63818 · /tle

For live sub-satellite position, see the globe view (requires WebGL).

§ Visibility from observer

Set your observer location to see the next 7 days of passes ≥ 10°. The values pass through the URL so the page stays shareable.

No JS? Fill the form by hand. The geolocation button needs JavaScript.